Location: Unspecified
(54.1780°N, 0.0000°E)
Time: 03:59:02
(UTC+00:00)

Explorer 7 - Pass Details

Date: 15 August 2020
Orbit: 484 x 679 km, 50.3° (Epoch: 26 September)

Event Time Altitude Azimuth Distance (km) Brightness Sun altitude
Rises 22:23:58 0° 274° (W) 2,614 10.7 -18.9°
Reaches altitude 10° 22:26:24 10° 263° (W) 1,704 9.5 -19.0°
Enters shadow 22:28:54 25° 226° (SW) 1,014 8.0 -19.2°
